Lid_Strength_Index
0 2 3 5 10 11 13 12 11 9 10 9 8 9 9 9 9 11 4 3 0 0 -0 -0 -1 -1 -1 -2 -2 -1 -2 -1 -1 -1 -1 -1 -1 -1 -1 -1 -2 -1 -2 -1 -1 -1 -1 -1 -1
3 2 5 8 12 15 14 11 10 9 8 8 8 8 9 9 6 4 4 1 0 -0 -0 -0 -0 -1 -1 -1 -1 -1 -2 -2 -1 -1 -1 -1 -1 -1 -1 -1 -1 -1 -1 -1 -1 -2 -1 -1 -1
3 3 8 10 13 14 14 12 11 9 8 9 9 8 8 8 6 4 3 1 1 0 -0 -0 -0 -1 -1 -1 -1 -1 -2 -2 -2 -2 -1 -1 -2 -2 -1 -1 -1 -2 -1 -1 -1 -1 -1 -0 0
5 6 8 12 14 12 12 12 10 9 9 8 9 10 7 6 5 3 2 1 3 1 -0 -0 -1 -1 -1 -1 -1 -2 -1 -2 -2 -2 -2 -1 -2 -1 -2 -2 -2 -2 -1 -1 -1 -1 -1 0 1
6 8 12 13 13 11 11 9 9 9 9 9 9 10 9 5 3 2 2 1 3 3 1 -0 -0 -1 -1 -1 -1 -1 -1 -1 -1 -2 -2 -2 -2 -2 -1 -1 -1 -1 -1 -1 -1 -1 -0 1 2
9 10 14 14 13 11 10 9 9 9 9 9 10 10 9 6 5 4 2 2 2 2 1 -0 1 0 -0 -1 -1 -1 -1 -1 -1 -1 -2 -2 -2 -2 -1 -1 -1 -1 -1 -2 -1 -0 0 1 2
9 11 14 13 12 11 10 9 10 11 10 10 9 11 9 7 5 3 3 3 2 1 0 0 -0 0 1 0 0 -0 -1 -1 -1 -1 -1 -2 -2 -2 -2 -2 -1 -1 -2 -2 -1 -0 0 1 2
9 11 12 13 13 12 10 10 9 10 9 8 9 11 9 7 4 3 4 3 3 2 1 0 1 0 0 0 2 1 0 -0 -0 -0 -0 -0 -0 -1 -1 -1 -1 -2 -2 -2 -1 -0 1 2 3
8 13 14 13 12 11 9 11 9 9 10 9 8 9 8 7 5 5 4 4 4 3 2 1 1 0 1 1 1 2 1 1 1 1 2 2 2 1 0 -0 -1 -2 -2 -1 -0 0 1 3 5
10 13 12 10 12 11 10 11 11 11 10 10 9 8 8 6 7 6 5 5 4 4 3 2 2 1 0 0 1 2 1 1 2 2 3 2 3 3 2 2 -1 -2 -2 -1 -0 1 2 5 10
9 12 10 9 8 9 10 10 10 11 12 10 10 9 9 8 7 7 7 5 4 3 3 2 2 2 1 0 1 1 1 2 3 2 2 2 2 3 4 3 2 2 2 3 3 4 7 8 9
11 9 8 8 8 9 10 9 10 10 9 8 9 8 9 9 9 8 8 7 7 4 2 1 2 2 2 1 2 1 1 2 2 1 1 1 1 3 5 4 3 4 5 5 6 7 9 10 10
11 10 9 9 9 9 9 10 10 10 8 8 8 8 9 9 9 9 8 8 8 7 5 2 2 2 1 2 3 2 2 2 2 3 1 1 1 3 5 4 3 5 5 6 7 9 10 10 10
10 10 11 10 10 10 11 11 10 10 9 9 9 9 10 9 9 9 9 8 8 7 7 4 1 2 2 2 3 3 2 2 3 3 2 1 2 3 5 5 4 4 5 6 8 10 10 11 11
10 12 12 11 11 11 11 13 12 10 10 10 10 10 10 10 10 10 9 9 9 8 7 6 2 2 2 3 3 3 3 3 2 2 2 2 3 3 5 5 4 4 5 7 9 10 10 11 11
12 14 15 12 11 11 12 15 11 10 11 11 10 10 10 11 11 11 10 10 9 9 8 7 3 2 3 3 3 3 3 3 3 3 2 3 3 3 4 6 5 5 6 8 10 11 11 11 12
15 17 15 14 11 12 13 15 11 10 11 11 11 11 11 12 11 11 11 10 10 10 9 9 7 4 3 3 3 3 3 3 3 3 4 3 4 4 6 7 6 6 7 9 10 12 11 12 12
16 16 15 15 12 13 14 15 13 12 12 11 12 12 12 12 12 11 11 11 11 11 10 9 8 7 5 4 4 4 4 4 4 4 3 4 4 6 7 7 6 7 9 10 11 12 12 12 13
15 16 16 15 12 14 14 15 13 12 12 12 13 13 13 12 11 11 11 12 12 12 11 11 10 9 8 7 6 6 5 5 5 3 3 3 3 4 7 7 7 9 9 11 11 12 12 13 13
15 16 16 14 13 14 15 15 13 11 13 13 13 13 13 13 13 12 12 12 12 12 12 12 11 10 10 9 8 7 7 7 5 5 4 4 4 4 6 8 9 10 11 11 12 12 13 13 13
15 16 16 15 14 14 16 17 15 14 13 12 12 12 12 13 13 13 13 13 13 13 13 12 12 11 11 10 9 9 9 9 9 8 7 6 5 5 6 7 9 10 11 11 12 12 12 14 13
16 13 14 14 17 19 16 21 16 14 14 13 13 14 14 13 13 12 13 13 13 13 13 13 12 12 12 12 12 12 11 12 11 10 9 8 7 7 7 7 9 10 12 12 12 12 13 13 14
14 14 15 15 17 18 17 20 17 14 15 14 14 13 13 13 13 13 13 12 13 13 13 13 13 12 12 12 13 13 13 12 12 11 11 11 10 9 8 9 9 10 11 12 13 13 14 14 13
13 15 15 16 17 21 17 17 17 16 14 14 13 13 13 13 12 12 12 12 13 13 14 13 14 13 13 13 13 13 13 13 13 13 13 12 12 11 10 10 10 10 11 12 13 13 14 13 14
14 16 19 20 21 20 15 16 15 12 13 12 13 13 13 12 13 13 13 13 13 14 14 14 14 14 14 14 14 14 13 13 14 14 14 14 13 13 13 13 12 11 11 12 13 14 14 14 13
15 14 18 23 22 19 15 17 14 12 11 11 12 12 12 13 13 13 13 13 13 14 14 14 15 15 14 14 14 14 14 13 13 14 14 14 14 14 13 14 14 13 12 11 12 14 14 14 14
13 15 12 16 16 20 17 14 12 11 12 12 12 12 13 13 12 12 13 14 14 14 14 14 15 15 14 14 14 14 15 15 15 15 15 15 14 13 14 14 14 14 14 13 13 14 15 15 15
11 10 16 16 22 22 17 16 16 13 12 12 13 13 13 13 13 12 12 13 14 14 14 14 14 15 15 14 15 15 15 14 15 15 16 16 15 15 15 15 15 15 14 14 14 15 15 15 15
13 14 13 14 16 20 21 17 11 11 11 12 13 12 12 13 13 13 13 13 14 14 15 15 15 14 14 14 15 14 14 15 15 15 15 16 15 15 16 15 15 16 16 15 14 15 15 16 15
10 12 12 16 18 16 17 16 10 10 11 11 11 11 12 12 14 14 13 12 13 14 14 13 13 13 12 12 13 13 13 14 14 15 15 15 15 15 16 16 16 16 16 16 15 15 15 15 16